Regional Weather Roundup
Issued by NWS

Home | Current Version | Previous Version | Text Only | Print | Product List | Glossary Off
Versions: 1 2 3 4 5 6 7 8 9 10 11 12 13 14 15 16 17 18 19 20 21 22 23 24 25 26 27 28 29 30 31 32 33 34 35 36 37 38 39 40 41 42 43 44 45 46 47 48 49 50

000
ASUS43 KMPX 231901
RWRMN
WEATHER ROUNDUP FOR MINNESOTA
NATIONAL WEATHER SERVICE TWIN CITIES/CHANHASSEN MN
200 PM CDT MON MAY 23 2016


NOTE: "FAIR" INDICATES FEW OR NO CLOUDS BELOW 12,000 FEET WITH NO
SIGNIFICANT WEATHER AND/OR OBSTRUCTIONS TO VISIBILITY. N/A MEANS
CURRENT SKY AND/OR WEATHER CONDITIONS ARE NOT AVAILABLE.

MNZ060>063-068>070-232000-
   Twin Cities Metro

CITY           SKY/WX    TMP DP  RH WIND       PRES   REMARKS
TWIN CITIES    CLOUDY    83  58  42 S20G29    29.75R
ST PAUL        PTSUNNY   83  60  45 S22G32    29.74S
CRYSTAL        PTSUNNY   81  59  47 SW16G25   29.74R
BLAINE         CLOUDY    82  61  47 S13G25    29.75R
EDEN PRAIRIE   CLOUDY    82  60  47 S20G26    29.75R
SOUTH ST PAUL  MOSUNNY   82  58  44 S22       29.74S
LAKE ELMO      FAIR      81  61  50 S22G35    29.75F
$$
MNZ001>005-007-008-013>017-022>024-027-028-232000-
   Northwest Minnesota

CITY           SKY/WX    TMP DP  RH WIND       PRES   REMARKS
BEMIDJI        PTSUNNY   76  56  50 W14       29.68R
HALLOCK        SUNNY     79  52  38 W13       29.62S
ROSEAU         SUNNY     77  55  47 W15G22    29.63R
WARROAD        MOSUNNY   75  59  57 W15       29.63R
THIEF RVR FALL CLOUDY    73  55  53 SW13      29.67S
CROOKSTON      MOSUNNY   77  57  50 W10G21    29.65F
FOSSTON        CLOUDY    75  54  46 W9        29.68S
DETROIT LAKES  CLOUDY    77  50  38 SW12      29.70S
MOORHEAD       MOSUNNY   81  45  28 SW7       29.67S
PARK RAPIDS    CLOUDY    77  58  51 S14       29.69F
MAHNOMEN       FAIR      74  56  53 W12       29.68S
$$
MNZ006-009>011-018-025>026-232000-
   North Central Minnesota

CITY           SKY/WX    TMP DP  RH WIND       PRES   REMARKS
BAUDETTE       SUNNY     77  53  43 W15G25    29.63S
FLAG ISLAND    MOSUNNY   70  54  56 W9        29.61R
INTL FALLS     CLOUDY    73  59  61 SW13G20   29.64S
WASKISH        MOSUNNY   72  63  73 SW12      29.67S
BIG FORK       CLOUDY    72  59  64 S15G22    29.69R
LONGVILLE      CLOUDY    73  59  60 SW12G18   29.70F
GRAND RAPIDS     N/A    N/A N/A N/A MISG        N/A
CRANE LAKE     PTSUNNY   73  55  53 S9G18     29.68S
ORR            CLOUDY    73  54  49 SW8G17    29.65F
COOK           CLOUDY    75  55  50 SW16G23   29.69F
WALKER         FAIR      73  57  57 SW12G20   29.68F
$$
MNZ012-019>021-037-232000-
   Northeast Minnesota

CITY           SKY/WX    TMP DP  RH WIND       PRES   REMARKS
DULUTH         MOSUNNY   76  54  46 SW16G28   29.73S
ELY            PTSUNNY   75  54  46 SW17      29.70F
HIBBING        CLOUDY    71  56  58 SW10G18   29.71S
EVELETH        MOSUNNY   77  54  44 W13G18    29.72S
DULUTH HARBOR  CLOUDY    79  57  47 SW18G26   29.71S
TWO HARBORS      N/A     81  61  50 SW16G25   29.70F
SILVER BAY     CLOUDY    79  54  41 S16G30    29.70F
GRAND MARAIS     N/A     52  40  63 NE5       29.71F
G MARAIS ARPRT CLOUDY    72  48  43 S13G21    29.75F
$$
MNZ029>031-032-039>041-046>048-054>057-064-232000-
   West Central Minnesota

CITY           SKY/WX    TMP DP  RH WIND       PRES   REMARKS
FERGUS FALLS   MOSUNNY   79  52  38 W8        29.66S
WHEATON        SUNNY     81  57  44 SW8       29.72R
MORRIS         SUNNY     75  59  57 SW13G20   29.72S
ALEXANDRIA     LGT RAIN  74  59  59 SW12G21   29.75R
ELBOW LAKE     PTSUNNY   76  58  53 SW12      29.72S
WADENA         PTSUNNY   73  57  56 W13G18    29.72R
GLENWOOD       MOSUNNY   73  61  64 SW14G22   29.76R
APPLETON       MOSUNNY   75  57  53 S10       29.72S
BENSON         PTSUNNY   75  57  53 W13G23    29.73S
ORTONVILLE     SUNNY     75  55  50 S8        29.72S
MADISON        MOSUNNY   75  57  53 SW14G21   29.74S
WILLMAR        FAIR      75  61  60 SW12G17   29.76S
$$
MNZ033>034-036-042>043-049>051-058-059-232000-
   Central Minnesota

CITY           SKY/WX    TMP DP  RH WIND       PRES   REMARKS
ST CLOUD       CLOUDY    74  59  59 SW13      29.76R
PAYNESVILLE    CLOUDY    72  60  66 SW10      29.77S
AITKIN         CLOUDY    75  55  50 SW12G18   29.72R
PINE RIVER     CLOUDY    73  61  64 SW10G16   29.75R
BRAINERD       CLOUDY    73  58  59 W13       29.74R
STAPLES        MOSUNNY   73  57  56 SW9G18    29.73R
LONG PRAIRIE   PTSUNNY   72  61  68 S15       29.75R
LITTLE FALLS   CLOUDY    72  55  56 SW12      29.76R
LITCHFIELD     CLOUDY    75  64  69 SE5       29.77S
BUFFALO        PTSUNNY   78  59  52 SW6       29.77S
MAPLE LAKE     PTSUNNY   78  62  57 S8        29.77S
HUTCHINSON     PTSUNNY   78  62  59 SW10G16   29.78S
$$
MNZ037-044-045-052-053-232000-
   East Central Minnesota

CITY           SKY/WX    TMP DP  RH WIND       PRES   REMARKS
PRINCETON      PTSUNNY   79  57  47 S12       29.76S
MORA           CLOUDY    73  55  53 SW10      29.77R
CAMBRIDGE        N/A     81  61  50 SW9       29.74F
RUSH CITY      CLOUDY    79  59  50 W7        29.76S
MOOSE LAKE     CLOUDY    79  55  44 SW15G21   29.72S
HINCKLEY       CLOUDY    73  59  60 SW12      29.76S
CLOQUET        CLOUDY    75  54  46 S15G25    29.73R
MCGREGOR       CLOUDY    73  59  60 S12G18    29.74R
$$
MNZ071>073-080-081-089-090-097-098-232000-
   Southwest Minnesota

CITY           SKY/WX    TMP DP  RH WIND       PRES   REMARKS
MONTEVIDEO     MOSUNNY   79  61  53 W13G20    29.76S
GRANITE FALLS  CLOUDY    76  62  62 SW16G23   29.76F
CANBY          MOSUNNY   77  62  60 SW13      29.75F
MARSHALL       LGT RAIN  71  64  78 W14       29.76S
REDWOOD FALLS  PTSUNNY   79  58  48 S13G23    29.74S
OLIVIA         CLOUDY    70  55  60 W10       29.75S
PIPESTONE      CLOUDY    70  64  83 W9        29.78S
WINDOM         CLOUDY    75  61  60 S5G21     29.77S
WORTHINGTON    CLOUDY    73  64  73 SW20      29.77F
JACKSON        CLOUDY    73  61  64 SW17G25   29.79R
SLAYTON        CLOUDY    74  62  67 S17G23    29.78F
$$
MNZ065>067-074>077-082>085-091>093-232000-
   South Central Minnesota

CITY           SKY/WX    TMP DP  RH WIND       PRES   REMARKS
MANKATO        CLOUDY    79  57  47 S23G31    29.77R
NEW ULM        MOSUNNY   79  57  47 SW15G21   29.75S
ST JAMES       CLOUDY    72  57  60 S21G30    29.77R
FAIRMONT       CLOUDY    72  61  68 S20G28    29.78R
GLENCOE        CLOUDY    79  63  57 S7G17     29.75F
OWATONNA       CLOUDY    77  57  50 S28G35    29.80R
WASECA         CLOUDY    72  59  64 S18G35    29.78S
ALBERT LEA     LGT RAIN  72  61  68 S15G24    29.81R
$$
MNZ078>079-086>088-094>096-232000-
   Southeast Minnesota

CITY           SKY/WX    TMP DP  RH WIND       PRES   REMARKS
ROCHESTER      MOSUNNY   84  58  40 S30G38    29.81F
RED WING       MOSUNNY   84  54  34 S16G26    29.74F
STANTON        CLOUDY    81  59  46 S20G32    29.75S
DODGE CENTER   CLOUDY    79  57  47 S32G39    29.80R
WINONA         CLOUDY    82  52  34 S8G16     29.81F
AUSTIN         CLOUDY    75  57  53 S23G31    29.81S
PRESTON        PTSUNNY   80  55  42 S18G32    29.84F
$$
ABBREVIATIONS USED IN REMARKS
   TC - TEMPERATURES IN CELSIUS
  WCI - WIND CHILL INDEX
   HX - HEAT INDEX
  VSB - VISIBILITY
$$



USA.gov is the U.S. government's official web portal to all federal, state and local government web resources and services.